[[{"header":{"parameterUnit":"m.s-1","parameterCategory":2,"la1":30.2992,"la2":30.254,"lo1":-89.0895,"lo2":-89.0443,"dy":0.0025,"dx":0.0025,"nx":19,"ny":19,"refTime":"2026-03-12T03:00:00:Z","depth":"0","parameterNumber":2,"parameterNumberName":"U-component_of_CURRENTS"},"data":[0,0,0,-0.2134,-0.2135,-0.217,-0.217,-0.2191,-0.2191,0,0,0,0,0,0,0,0,0,0,0,-0.2112,-0.2112,-0.2134,-0.2135,-0.217,-0.217,-0.2191,-0.2191,0,0,0,0,0,0,0,0,0,0,0,-0.2112,-0.2112,-0.2113,-0.2136,-0.217,-0.217,-0.2191,-0.2169,0,0,0,0,0,0,0,0,0,0,-0.2137,-0.2115,-0.2112,-0.2113,-0.2136,-0.217,-0.217,-0.2168,-0.217,-0.217,0,-0.2174,0,-0.219,-0.2192,-0.2192,0,0,0,-0.2129,-0.2113,-0.2133,-0.2113,-0.2136,-0.217,-0.2153,-0.2169,-0.2172,-0.2173,-0.2174,-0.2176,-0.219,-0.2192,-0.2193,-0.2224,-0.2225,0,0,-0.2127,-0.2108,-0.2132,-0.2135,-0.2143,-0.2152,-0.2154,-0.2171,-0.2165,-0.2175,-0.2177,-0.2191,-0.2193,-0.2193,-0.2224,-0.2225,0,0,0,-0.2126,-0.2107,-0.2127,-0.2133,-0.2146,-0.2153,-0.2155,-0.2164,-0.2174,-0.2177,-0.2191,-0.2193,-0.2193,-0.2224,-0.2224,-0.2255,0,0,0,-0.2124,-0.2107,-0.2126,-0.2114,-0.2146,-0.2158,-0.2148,-0.2173,-0.2176,-0.2191,-0.2193,-0.2193,-0.2224,-0.2224,-0.2254,-0.225,0,0,0,-0.2111,-0.2106,-0.2112,-0.2113,-0.2134,-0.2158,-0.2168,-0.2174,-0.2184,-0.2192,-0.2193,-0.2224,-0.2224,-0.2253,-0.2248,-0.223,0,0,0,-0.2089,-0.2103,-0.2111,-0.2135,-0.2134,-0.2183,-0.2168,-0.2194,-0.2204,-0.2193,-0.2224,-0.2224,-0.2253,-0.2247,-0.223,-0.2042,-0.2029,0,0,-0.21,-0.2104,-0.2123,-0.2132,-0.2181,-0.2178,-0.2221,-0.2221,-0.2208,-0.2215,-0.2216,-0.2255,-0.2248,-0.223,-0.2069,-0.2054,0,0,0,-0.2124,-0.2132,-0.215,-0.2178,-0.2214,-0.2234,-0.2246,-0.2243,-0.2245,-0.2218,-0.2255,-0.2249,-0.2237,-0.2123,-0.2113,-0.2023,-0.2226,-0.2226,-0.2226,-0.2092,-0.2133,-0.2162,-0.221,-0.224,-0.2275,-0.2283,-0.2277,-0.2277,-0.2277,-0.2276,-0.2284,-0.2164,-0.2153,-0.2065,-0.2287,-0.2287,-0.2287,-0.2287,-0.2098,-0.2106,-0.2162,-0.2204,-0.2244,-0.2275,-0.2309,-0.2308,-0.2305,-0.2302,-0.2289,-0.2163,-0.2142,-0.2052,-0.2289,-0.2289,-0.2289,-0.2289,-0.2288,-0.2053,-0.2062,-0.21,-0.2157,-0.2206,-0.2263,-0.228,-0.2316,-0.231,-0.2311,-0.2162,-0.2158,-0.2075,-0.2304,-0.2304,-0.2304,-0.2304,-0.2304,-0.2304,-0.1974,-0.2019,-0.2031,-0.211,-0.2134,-0.2193,-0.2261,-0.2254,-0.2199,-0.2161,-0.2159,-0.2048,-0.2288,-0.2281,-0.2302,-0.2302,-0.2303,-0.2303,-0.2303,-0.1887,-0.1914,-0.1929,-0.1953,-0.2028,-0.201,-0.2126,-0.2044,-0.2051,-0.1967,-0.1847,-0.2066,-0.2027,-0.2033,-0.202,-0.1972,-0.1972,-0.1972,-0.1972,-0.1799,-0.1828,-0.1807,-0.1822,-0.1862,-0.1913,-0.1778,-0.1737,-0.1666,-0.1593,-0.1666,-0.1618,-0.1636,-0.1574,-0.159,-0.1568,-0.1407,-0.1407,-0.1406,-0.1713,-0.1736,-0.1675,-0.1723,-0.1764,-0.1751,-0.1545,-0.1373,-0.1323,-0.1384,-0.1585,-0.1609,-0.1547,-0.1581,-0.1492,-0.1522,-0.149,0,0]},{"header":{"parameterUnit":"m.s-1","parameterCategory":2,"la1":30.2992,"la2":30.254,"lo1":-89.0895,"lo2":-89.0443,"dy":0.0025,"dx":0.0025,"nx":19,"ny":19,"refTime":"2026-03-12T03:00:00:Z","depth":"0","parameterNumber":3,"parameterNumberName":"V-component_of_CURRENTS"},"data":[0,0,0,-0.0268,-0.0267,-0.0207,-0.0206,-0.0082,-0.0081,0,0,0,0,0,0,0,0,0,0,0,-0.0287,-0.0287,-0.0268,-0.0267,-0.0207,-0.0206,-0.0082,-0.0081,0,0,0,0,0,0,0,0,0,0,0,-0.0287,-0.0287,-0.0287,-0.0267,-0.0207,-0.0206,-0.0082,-0.0136,0,0,0,0,0,0,0,0,0,0,-0.0199,-0.0233,-0.0287,-0.0287,-0.0267,-0.0207,-0.0206,-0.0139,-0.0133,-0.0101,0,-0.0101,0,-0.0094,-0.0073,-0.0073,0,0,0,-0.0252,-0.0238,-0.0221,-0.0287,-0.0266,-0.0207,-0.023,-0.0136,-0.0129,-0.0092,-0.0099,-0.0095,-0.0092,-0.0072,-0.0072,0.0012,0.0012,0,0,-0.0255,-0.0271,-0.0226,-0.0217,-0.0261,-0.0232,-0.0228,-0.0132,-0.0128,-0.0099,-0.0092,-0.009,-0.0071,-0.007,0.0012,0.0012,0,0,0,-0.0275,-0.0274,-0.026,-0.0222,-0.0218,-0.023,-0.0226,-0.0132,-0.0128,-0.0091,-0.0088,-0.0071,-0.0069,0.0012,0.0012,-0.0058,0,0,0,-0.0276,-0.0286,-0.0262,-0.027,-0.0221,-0.0182,-0.0229,-0.0134,-0.0124,-0.0089,-0.0071,-0.0068,0.0012,0.0012,-0.0056,-0.0086,0,0,0,-0.0288,-0.0287,-0.0284,-0.0271,-0.0252,-0.0184,-0.0173,-0.0132,-0.0122,-0.0072,-0.0068,0.0012,0.0012,-0.0054,-0.0083,-0.0027,0,0,0,-0.03,-0.0324,-0.0285,-0.0307,-0.0253,-0.0235,-0.0174,-0.0148,-0.0113,-0.007,0.0012,0.0012,-0.0054,-0.0081,-0.0026,0.0051,0.0054,0,0,-0.0343,-0.0329,-0.0344,-0.0308,-0.0319,-0.0242,-0.0229,-0.0155,-0.0096,-0.0013,-0.0011,-0.0056,-0.0082,-0.0027,0.0054,0.0057,0,0,0,-0.0366,-0.038,-0.0375,-0.0369,-0.0333,-0.029,-0.0216,-0.0165,-0.0091,-0.0077,-0.0035,-0.0049,-0.0011,0.0037,0.0039,0.02,0.0013,0.0013,0.0013,-0.0442,-0.0426,-0.0451,-0.0425,-0.0401,-0.0315,-0.0264,-0.0175,-0.0123,-0.0097,-0.0091,-0.0078,-0.0029,-0.0026,0.0138,-0.0073,-0.0073,-0.0073,-0.0073,-0.0525,-0.0546,-0.0508,-0.053,-0.0463,-0.0432,-0.0303,-0.0247,-0.014,-0.0121,-0.008,-0.0022,-0.0027,0.0147,-0.0077,-0.0077,-0.0076,-0.0076,-0.0075,-0.0587,-0.0596,-0.0598,-0.0611,-0.0581,-0.0501,-0.0426,-0.0328,-0.0202,-0.0172,-0.0046,-0.0043,0.0102,-0.0132,-0.0132,-0.0132,-0.0132,-0.0132,-0.0132,-0.0653,-0.0653,-0.0695,-0.0694,-0.0693,-0.0647,-0.0496,-0.0391,-0.0204,-0.0101,-0.0099,0.0136,-0.0094,-0.01,-0.013,-0.013,-0.0131,-0.0131,-0.0131,-0.0736,-0.0731,-0.0799,-0.0816,-0.0807,-0.0738,-0.0598,-0.032,-0.0186,-0.0062,0.0216,-0.0027,0.002,0.002,0.0019,0.0021,0.0021,0.0021,0.0021,-0.0787,-0.0793,-0.0876,-0.0911,-0.0905,-0.0783,-0.0545,-0.0245,0.0139,0.0334,0.0368,0.0399,0.0386,0.0457,0.0447,0.0456,0.0569,0.057,0.0571,-0.0836,-0.0859,-0.092,-0.0952,-0.0946,-0.0797,-0.0518,-0.0073,0.0446,0.0607,0.0577,0.0554,0.0611,0.0577,0.0694,0.0667,0.0683,0,0]}],[{"header":{"parameterUnit":"m.s-1","parameterCategory":2,"la1":30.2992,"la2":30.254,"lo1":-89.0895,"lo2":-89.0443,"dy":0.0025,"dx":0.0025,"nx":19,"ny":19,"refTime":"2026-03-12T03:00:00:Z","depth":"2","parameterNumber":2,"parameterNumberName":"U-component_of_CURRENTS"},"data":[0,0,0,-0.1941,-0.1943,-0.1989,-0.1989,-0.2013,-0.2013,0,0,0,0,0,0,0,0,0,0,0,-0.1918,-0.1918,-0.1941,-0.1943,-0.1989,-0.1989,-0.2013,-0.2013,0,0,0,0,0,0,0,0,0,0,0,-0.1918,-0.1918,-0.1918,-0.1943,-0.1988,-0.1989,-0.2013,-0.1986,0,0,0,0,0,0,0,0,0,0,-0.1945,-0.1924,-0.1918,-0.1918,-0.1943,-0.1988,-0.1989,-0.1985,-0.1987,-0.1985,0,-0.1992,0,-0.2009,-0.2015,-0.2015,0,0,0,-0.1937,-0.1922,-0.1943,-0.1918,-0.1944,-0.1988,-0.1966,-0.1986,-0.1989,-0.1988,-0.1992,-0.1994,-0.2009,-0.2015,-0.2015,-0.2046,-0.2046,0,0,-0.1934,-0.1918,-0.1941,-0.1945,-0.1956,-0.1965,-0.1968,-0.1989,-0.1986,-0.1993,-0.1995,-0.201,-0.2015,-0.2015,-0.2046,-0.2046,0,0,0,-0.1931,-0.1916,-0.1937,-0.1943,-0.1957,-0.1966,-0.197,-0.1984,-0.1994,-0.1995,-0.201,-0.2015,-0.2015,-0.2046,-0.2046,-0.2078,0,0,0,-0.1929,-0.1915,-0.1935,-0.1925,-0.1957,-0.1975,-0.1965,-0.1992,-0.1996,-0.201,-0.2015,-0.2016,-0.2045,-0.2046,-0.2077,-0.2071,0,0,0,-0.1916,-0.1913,-0.192,-0.1924,-0.1949,-0.1976,-0.1986,-0.1993,-0.2005,-0.2015,-0.2016,-0.2045,-0.2046,-0.2076,-0.207,-0.2052,0,0,0,-0.1895,-0.191,-0.192,-0.1945,-0.1948,-0.1997,-0.1986,-0.2015,-0.2027,-0.2015,-0.2045,-0.2046,-0.2076,-0.2069,-0.2052,-0.1871,-0.1858,0,0,-0.1906,-0.1911,-0.1929,-0.194,-0.1988,-0.199,-0.2033,-0.204,-0.203,-0.2035,-0.2036,-0.2077,-0.207,-0.2052,-0.1896,-0.1882,0,0,0,-0.1929,-0.1937,-0.1955,-0.1984,-0.2019,-0.2043,-0.206,-0.206,-0.2066,-0.204,-0.2077,-0.2071,-0.2059,-0.1949,-0.1938,-0.2048,-0.2048,-0.2048,-0.2048,-0.1902,-0.1939,-0.1968,-0.2012,-0.2044,-0.2082,-0.2092,-0.2091,-0.2094,-0.2098,-0.2098,-0.2106,-0.199,-0.198,-0.2109,-0.2109,-0.2109,-0.211,-0.211,-0.1906,-0.1914,-0.1967,-0.2006,-0.2047,-0.2081,-0.2117,-0.2121,-0.2122,-0.2123,-0.211,-0.1989,-0.197,-0.2112,-0.2112,-0.2111,-0.2111,-0.2111,-0.2111,-0.1865,-0.1873,-0.191,-0.1965,-0.2014,-0.2072,-0.2089,-0.2128,-0.2128,-0.2131,-0.1988,-0.1985,-0.2105,-0.2127,-0.2127,-0.2127,-0.2127,-0.2127,-0.2127,-0.1792,-0.1835,-0.1846,-0.1921,-0.1946,-0.2002,-0.2072,-0.2066,-0.2019,-0.1988,-0.1986,-0.2111,-0.211,-0.2104,-0.2125,-0.2126,-0.2126,-0.2126,-0.2126,-0.1711,-0.1739,-0.1751,-0.1774,-0.1839,-0.1815,-0.1929,-0.1857,-0.1869,-0.1791,-0.189,-0.1896,-0.1857,-0.1863,-0.185,-0.1804,-0.1804,-0.1804,-0.1804,-0.1631,-0.1658,-0.1637,-0.1645,-0.1672,-0.1715,-0.1576,-0.1527,-0.1557,-0.1544,-0.1556,-0.1518,-0.1535,-0.1477,-0.1492,-0.1472,-0.1328,-0.1327,-0.1326,-0.155,-0.1571,-0.1512,-0.1551,-0.1575,-0.1551,-0.1341,-0.1136,-0.113,-0.1313,-0.1532,-0.1761,-0.1735,-0.1751,-0.1687,-0.1701,-0.1679,0,0]},{"header":{"parameterUnit":"m.s-1","parameterCategory":2,"la1":30.2992,"la2":30.254,"lo1":-89.0895,"lo2":-89.0443,"dy":0.0025,"dx":0.0025,"nx":19,"ny":19,"refTime":"2026-03-12T03:00:00:Z","depth":"2","parameterNumber":3,"parameterNumberName":"V-component_of_CURRENTS"},"data":[0,0,0,-0.0376,-0.0375,-0.0316,-0.0315,-0.02,-0.0199,0,0,0,0,0,0,0,0,0,0,0,-0.0394,-0.0394,-0.0376,-0.0375,-0.0316,-0.0315,-0.02,-0.0199,0,0,0,0,0,0,0,0,0,0,0,-0.0394,-0.0394,-0.0394,-0.0375,-0.0316,-0.0315,-0.02,-0.0251,0,0,0,0,0,0,0,0,0,0,-0.0312,-0.0344,-0.0394,-0.0394,-0.0374,-0.0316,-0.0315,-0.0254,-0.0248,-0.022,0,-0.0219,0,-0.0212,-0.0192,-0.0191,0,0,0,-0.0361,-0.0349,-0.0332,-0.0394,-0.0374,-0.0316,-0.0338,-0.0251,-0.0244,-0.0212,-0.0217,-0.0213,-0.021,-0.0191,-0.019,-0.0116,-0.0116,0,0,-0.0364,-0.0379,-0.0337,-0.0328,-0.0368,-0.034,-0.0337,-0.0247,-0.0244,-0.0217,-0.021,-0.0208,-0.019,-0.0189,-0.0116,-0.0116,0,0,0,-0.0383,-0.0382,-0.0368,-0.0333,-0.0328,-0.0339,-0.0335,-0.0247,-0.0243,-0.0209,-0.0207,-0.0189,-0.0188,-0.0116,-0.0116,-0.0183,0,0,0,-0.0384,-0.0393,-0.037,-0.0377,-0.0331,-0.0294,-0.0337,-0.0249,-0.0239,-0.0207,-0.0189,-0.0187,-0.0116,-0.0116,-0.0182,-0.0213,0,0,0,-0.0395,-0.0394,-0.0391,-0.0378,-0.0359,-0.0295,-0.0285,-0.0247,-0.0238,-0.0191,-0.0187,-0.0116,-0.0116,-0.018,-0.021,-0.0166,0,0,0,-0.0407,-0.0428,-0.0391,-0.0411,-0.036,-0.0344,-0.0286,-0.0261,-0.0228,-0.0189,-0.0116,-0.0116,-0.0179,-0.0208,-0.0166,-0.0106,-0.0105,0,0,-0.0446,-0.0432,-0.0445,-0.0412,-0.0423,-0.0351,-0.034,-0.027,-0.0214,-0.0139,-0.0138,-0.0182,-0.0209,-0.0166,-0.0106,-0.0106,0,0,0,-0.0466,-0.0478,-0.0474,-0.0469,-0.0436,-0.0398,-0.0328,-0.0282,-0.0214,-0.0196,-0.0163,-0.0178,-0.0148,-0.011,-0.0109,-0.0116,-0.0116,-0.0116,-0.0116,-0.0535,-0.0521,-0.0544,-0.0522,-0.0501,-0.0424,-0.038,-0.0299,-0.0247,-0.0224,-0.0219,-0.0216,-0.0177,-0.0176,-0.0201,-0.0201,-0.0202,-0.0202,-0.0202,-0.061,-0.0631,-0.0599,-0.062,-0.0562,-0.0536,-0.0423,-0.037,-0.0277,-0.0253,-0.022,-0.0167,-0.0179,-0.0207,-0.0206,-0.0205,-0.0205,-0.0204,-0.0204,-0.0667,-0.0677,-0.068,-0.0696,-0.0674,-0.0603,-0.0544,-0.0455,-0.0339,-0.0314,-0.0206,-0.0203,-0.0241,-0.0278,-0.0278,-0.0278,-0.0278,-0.0278,-0.0278,-0.0728,-0.073,-0.0772,-0.0775,-0.0779,-0.0743,-0.0614,-0.0526,-0.0361,-0.0264,-0.0262,-0.024,-0.0238,-0.0243,-0.0278,-0.0278,-0.0278,-0.0278,-0.0278,-0.0806,-0.0803,-0.087,-0.0891,-0.0894,-0.0845,-0.0723,-0.0485,-0.0368,-0.0259,-0.0204,-0.0206,-0.0163,-0.0162,-0.0164,-0.0176,-0.0176,-0.0176,-0.0176,-0.0855,-0.0861,-0.0946,-0.0988,-0.0996,-0.0896,-0.0706,-0.045,-0.0231,-0.0138,-0.014,-0.0133,-0.0137,-0.0092,-0.0093,-0.0092,-0.0086,-0.0086,-0.0086,-0.0903,-0.0926,-0.0989,-0.1028,-0.104,-0.0922,-0.0697,-0.0334,-0.0066,-0.0086,-0.0162,-0.0163,-0.0157,-0.0162,-0.0094,-0.0095,-0.0094,0,0]}],[{"header":{"parameterUnit":"m.s-1","parameterCategory":2,"la1":30.2992,"la2":30.254,"lo1":-89.0895,"lo2":-89.0443,"dy":0.0025,"dx":0.0025,"nx":19,"ny":19,"refTime":"2026-03-12T03:00:00:Z","depth":"4","parameterNumber":2,"parameterNumberName":"U-component_of_CURRENTS"},"data":[0,0,0,-0.1386,-0.1389,-0.1512,-0.1512,-0.159,-0.1591,0,0,0,0,0,0,0,0,0,0,0,-0.1346,-0.1347,-0.1386,-0.1389,-0.1512,-0.1512,-0.159,-0.1591,0,0,0,0,0,0,0,0,0,0,0,-0.1346,-0.1347,-0.1348,-0.139,-0.1512,-0.1512,-0.159,-0.1517,0,0,0,0,0,0,0,0,0,0,-0.1408,-0.1384,-0.1347,-0.1348,-0.139,-0.1511,-0.1512,-0.1514,-0.1522,-0.1512,0,-0.1539,0,-0.1565,-0.1594,-0.1594,0,0,0,-0.1389,-0.1379,-0.1409,-0.1348,-0.1391,-0.1511,-0.1456,-0.1519,-0.1527,-0.1521,-0.1541,-0.1544,-0.1566,-0.1594,-0.1595,-0.1656,-0.1656,0,0,-0.1382,-0.1368,-0.1404,-0.1415,-0.1432,-0.1452,-0.146,-0.1525,-0.1536,-0.1541,-0.1546,-0.1567,-0.1595,-0.1595,-0.1656,-0.1656,0,0,0,-0.1363,-0.1363,-0.1395,-0.1411,-0.1439,-0.1456,-0.1465,-0.1533,-0.1544,-0.1547,-0.1568,-0.1595,-0.1596,-0.1655,-0.1656,-0.1688,0,0,0,-0.1359,-0.1352,-0.1391,-0.1384,-0.1438,-0.1499,-0.1472,-0.154,-0.1548,-0.1568,-0.1595,-0.1596,-0.1655,-0.1656,-0.1687,-0.1676,0,0,0,-0.1339,-0.135,-0.1367,-0.1383,-0.1436,-0.1499,-0.1514,-0.1542,-0.156,-0.1594,-0.1596,-0.1655,-0.1656,-0.1685,-0.1675,-0.1654,0,0,0,-0.1316,-0.1345,-0.1367,-0.141,-0.1435,-0.1509,-0.1514,-0.1576,-0.161,-0.1595,-0.1655,-0.1656,-0.1685,-0.1674,-0.1654,-0.1437,0,0,0,-0.1334,-0.1347,-0.1372,-0.1394,-0.146,-0.1491,-0.1559,-0.1606,-0.1612,-0.1627,-0.163,-0.1687,-0.1674,-0.1654,-0.148,0,0,0,0,-0.1366,-0.1384,-0.1409,-0.1456,-0.1509,-0.1559,-0.1612,-0.1627,-0.1667,-0.1636,-0.1692,-0.1682,-0.1669,-0.1542,-0.1659,-0.1659,-0.1659,-0.1659,-0.1659,-0.1353,-0.1392,-0.1436,-0.1491,-0.1541,-0.1613,-0.1646,-0.1674,-0.1691,-0.1712,-0.1714,-0.1724,-0.1594,-0.1732,-0.1732,-0.1732,-0.1733,-0.1733,-0.1733,-0.1359,-0.1373,-0.1443,-0.1499,-0.1562,-0.1623,-0.1682,-0.1706,-0.1728,-0.1741,-0.1727,-0.1592,-0.1736,-0.1735,-0.1735,-0.1735,-0.1734,-0.1734,-0.1734,-0.132,-0.1331,-0.139,-0.1469,-0.1548,-0.1628,-0.1651,-0.1714,-0.1736,-0.1743,-0.1587,-0.1727,-0.1716,-0.1742,-0.1742,-0.1742,-0.1742,-0.1741,-0.1741,-0.124,-0.1299,-0.1335,-0.1436,-0.1481,-0.155,-0.1638,-0.1632,-0.1681,-0.1576,-0.1746,-0.1726,-0.1726,-0.1716,-0.174,-0.174,-0.174,-0.174,-0.174,-0.1158,-0.1203,-0.1238,-0.1283,-0.1371,-0.1402,-0.1525,-0.1473,-0.1444,-0.1376,-0.1474,-0.1488,-0.1442,-0.1448,-0.1426,-0.1366,-0.1363,-0.136,0,-0.1082,-0.1114,-0.1133,-0.116,-0.1175,-0.129,-0.1202,-0.1229,-0.1259,-0.1219,-0.1438,-0.1552,-0.1559,-0.1513,-0.1513,-0.1489,0,0,0,-0.1012,-0.1036,-0.1008,-0.1064,-0.1068,-0.1075,-0.1166,-0.1107,-0.1281,-0.1179,-0.1291,-0.1309,-0.1576,-0.1734,-0.1696,-0.1696,-0.1677,0,0]},{"header":{"parameterUnit":"m.s-1","parameterCategory":2,"la1":30.2992,"la2":30.254,"lo1":-89.0895,"lo2":-89.0443,"dy":0.0025,"dx":0.0025,"nx":19,"ny":19,"refTime":"2026-03-12T03:00:00:Z","depth":"4","parameterNumber":3,"parameterNumberName":"V-component_of_CURRENTS"},"data":[0,0,0,-0.0351,-0.0351,-0.0323,-0.0323,-0.024,-0.0239,0,0,0,0,0,0,0,0,0,0,0,-0.036,-0.036,-0.0351,-0.035,-0.0323,-0.0323,-0.024,-0.0239,0,0,0,0,0,0,0,0,0,0,0,-0.036,-0.036,-0.036,-0.035,-0.0323,-0.0323,-0.024,-0.027,0,0,0,0,0,0,0,0,0,0,-0.0302,-0.0325,-0.036,-0.036,-0.035,-0.0323,-0.0323,-0.0272,-0.0268,-0.0243,0,-0.0247,0,-0.0245,-0.0234,-0.0233,0,0,0,-0.0339,-0.0329,-0.0319,-0.036,-0.035,-0.0323,-0.0332,-0.027,-0.0266,-0.0237,-0.0246,-0.0243,-0.0243,-0.0233,-0.0233,-0.0179,-0.0179,0,0,-0.0341,-0.0352,-0.0322,-0.0317,-0.0353,-0.0333,-0.0332,-0.0268,-0.0268,-0.0245,-0.0241,-0.0242,-0.0233,-0.0232,-0.0179,-0.0179,0,0,0,-0.0353,-0.0354,-0.0346,-0.032,-0.0321,-0.0333,-0.0331,-0.0271,-0.0268,-0.024,-0.0241,-0.0232,-0.0231,-0.0179,-0.0179,-0.0241,0,0,0,-0.0353,-0.0361,-0.0347,-0.0353,-0.0323,-0.0303,-0.0335,-0.0272,-0.0266,-0.0242,-0.0232,-0.023,-0.0179,-0.0179,-0.0239,-0.027,0,0,0,-0.036,-0.0362,-0.0362,-0.0354,-0.0347,-0.0304,-0.0298,-0.0271,-0.0266,-0.0233,-0.023,-0.0179,-0.0179,-0.0238,-0.0267,-0.0248,0,0,0,-0.0367,-0.0384,-0.0362,-0.038,-0.0348,-0.0343,-0.0298,-0.0286,-0.0264,-0.0232,-0.0179,-0.0179,-0.0237,-0.0265,-0.0247,-0.0237,0,0,0,-0.0394,-0.0387,-0.0398,-0.0378,-0.0394,-0.0345,-0.0347,-0.0298,-0.0252,-0.0194,-0.0193,-0.024,-0.0267,-0.0248,-0.0242,0,0,0,0,-0.0411,-0.0422,-0.0422,-0.0426,-0.0407,-0.0391,-0.0343,-0.031,-0.0262,-0.0241,-0.0224,-0.0239,-0.0225,-0.0215,-0.018,-0.018,-0.018,-0.018,-0.018,-0.0459,-0.0454,-0.0478,-0.047,-0.0461,-0.0417,-0.0393,-0.0335,-0.0291,-0.0276,-0.0278,-0.0292,-0.0284,-0.0261,-0.0262,-0.0262,-0.0262,-0.0262,-0.0262,-0.0512,-0.053,-0.0522,-0.0547,-0.052,-0.0512,-0.0438,-0.04,-0.034,-0.0311,-0.0294,-0.0268,-0.0268,-0.0267,-0.0266,-0.0266,-0.0265,-0.0265,-0.0264,-0.0549,-0.0558,-0.0576,-0.0607,-0.0613,-0.0575,-0.0549,-0.0486,-0.0398,-0.0387,-0.0332,-0.0317,-0.0322,-0.0366,-0.0366,-0.0366,-0.0366,-0.0366,-0.0366,-0.0578,-0.0595,-0.0644,-0.067,-0.0693,-0.0686,-0.0616,-0.0559,-0.0469,-0.0396,-0.0395,-0.0326,-0.0323,-0.0326,-0.0367,-0.0367,-0.0367,-0.0367,-0.0367,-0.062,-0.0634,-0.0704,-0.0742,-0.0783,-0.0765,-0.0711,-0.0566,-0.0502,-0.0416,-0.0379,-0.0378,-0.0345,-0.0341,-0.0344,-0.0392,-0.0392,-0.0392,0,-0.0647,-0.0659,-0.0753,-0.0813,-0.0838,-0.0806,-0.0709,-0.0618,-0.049,-0.0487,-0.0505,-0.0472,-0.0467,-0.0439,-0.0434,-0.0443,0,0,0,-0.0674,-0.0701,-0.0766,-0.0828,-0.0859,-0.0743,-0.0676,-0.0618,-0.0515,-0.0426,-0.0392,-0.0392,-0.0414,-0.0371,-0.0317,-0.0313,-0.0316,0,0]}]]